Regional Weather Roundup
Issued by NWS

Home | Current Version | Previous Version | Text Only | Print | Product List | Glossary Off
Versions: 1 2 3 4 5 6 7 8 9 10 11 12 13 14 15 16 17 18 19 20 21 22 23 24 25 26 27 28 29 30 31 32 33 34 35 36 37 38 39 40 41 42 43 44 45 46 47 48 49 50

000
ASUS43 KBIS 010602
RWRND

NORTH DAKOTA REGIONAL WEATHER ROUNDUP
NATIONAL WEATHER SERVICE BISMARCK ND
100 AM CDT TUE SEP 01 2015

NOTE: "FAIR" INDICATES FEW OR NO CLOUDS BELOW 12,000 FEET WITH NO
SIGNIFICANT WEATHER AND/OR OBSTRUCTIONS TO VISIBILITY.


NDZ001>003-009>011-017-010700-
NORTHWEST NORTH DAKOTA

CITY           SKY/WX    TMP DP  RH WIND       PRES   REMARKS
WILLISTON      CLEAR     54  42  64 CALM      29.87S
6HR MIN TEMP:  52; 6HR MAX TEMP:  78;

MINOT          FAIR      61  45  55 SW10      29.85R
$$

NDZ018>021-031>035-040>046-010700-
SOUTHWEST NORTH DAKOTA

CITY           SKY/WX    TMP DP  RH WIND       PRES   REMARKS
BISMARCK       CLEAR     57  51  80 SE5       29.90S
6HR MIN TEMP:  56; 6HR MAX TEMP:  81;

DICKINSON      PTCLDY    55  42  61 S7        29.89S
GARRISON         N/A     59  50  72 CALM      29.87S
6HR MIN TEMP:  56; 6HR MAX TEMP:  76;

HETTINGER ARPT CLEAR     60  49  66 SE8       29.94F
$$

NDZ004>008-012>016-024-026-027-054-010700-
NORTHEAST NORTH DAKOTA

CITY           SKY/WX    TMP DP  RH WIND       PRES   REMARKS
GRAND FORKS    FAIR      58  55  90 SW3       29.85S
GRND FRKS AFB  FAIR      58  55  89 SW5       29.86R
DEVILS LAKE    FAIR      64  50  59 SW5       29.85F
$$

NDZ022-023-025-028>030-036>039-047>053-010700-
SOUTHEAST NORTH DAKOTA

CITY           SKY/WX    TMP DP  RH WIND       PRES   REMARKS
FARGO          FAIR      63  60  90 S3        29.88S FOG
6HR MIN TEMP:  62; 6HR MAX TEMP:  80;

JAMESTOWN      FAIR      57  53  86 CALM      29.91R
$$




USA.gov is the U.S. government's official web portal to all federal, state and local government web resources and services.